Regional Weather Roundup
Issued by NWS Newport/Morehead, NC

Current Version | Previous Version | Graphics & Text | Print | Product List | Glossary Off
Versions: 1 2 3 4 5 6 7 8 9 10 11 12 13 14 15 16 17 18 19 20 21 22 23 24 25 26 27 28 29 30 31 32 33 34 35 36 37 38 39 40 41 42 43 44 45 46 47 48 49 50

000
ASUS42 KMHX 260113
RWRMHX
WEATHER ROUNDUP FOR EASTERN NORTH CAROLINA
NATIONAL WEATHER SERVICE NEWPORT/MOREHEAD CITY NC
900 PM EDT SAT MAR 25 2017

NOTE: "FAIR" INDICATES FEW OR NO CLOUDS BELOW 12,000 FEET
WITH NO SIGNIFICANT WEATHER AND/OR OBSTRUCTIONS TO VISIBILITY

NCZ015>017-031-032-045>047-102-103-260200-
NORTH COAST

CITY           SKY/WX    TMP DP  RH WIND       PRES   REMARKS
EDENTON        CLOUDY    66  53  61 S10       30.26R
ELIZABETH CITY PTCLDY    65  51  60 S10       30.24R
KITTY HAWK     NOT AVBL
MANTEO         CLOUDY    59  52  78 SW8       30.27R

$$

NCZ045>047-081-094-103-104-260200-
CENTRAL COAST

CITY           SKY/WX    TMP DP  RH WIND       PRES   REMARKS
FRISCO         PTCLDY    64  55  72 SW7       30.28R

$$

NCZ095-097-098-100-101-260200-
SOUTHERN COAST

CITY           SKY/WX    TMP DP  RH WIND       PRES   REMARKS
BEAUFORT       PTCLDY    63  57  81 S6        30.28R
CEDAR ISLAND   NOT AVBL
JACKSONVILLE   CLOUDY    63  56  78 S7        30.26R
PINEY ISLAND   CLOUDY   N/A N/A N/A S6        30.27R
WILMINGTON     PTCLDY    64  56  75 S5        30.27R


$$

NCZ011>013-027>030-043-044-078>080-089-090>093-098-260200-
COASTAL PLAIN

CITY           SKY/WX    TMP DP  RH WIND       PRES   REMARKS
AHOSKIE          N/A     61  51  71 CALM      30.24R
CLINTON        CLOUDY    65  53  63 S3        30.25R
ELIZABETHTOWN  CLOUDY    64  53  66 SE5       30.25R
GOLDSBORO      MOCLDY    67  52  58 S5        30.23R
GREENVILLE     CLOUDY    66  52  59 S8        30.26R
HAVELOCK       CLEAR     64  54  69 S7        30.28R
KENANSVILLE    PTCLDY    64  52  63 S3        30.25R
KINSTON        CLOUDY    66  52  59 S8        30.26R
NEW BERN       PTCLDY    64  55  72 S8        30.28R
RICHLANDS      PTCLDY    62  55  77 S5        30.26R
ROCKY MOUNT    CLOUDY    62  52  69 S5        30.23R
WASHINGTON     CLOUDY    65  52  62 S5        30.26R
WHITEVILLE     PTCLDY    64  54  68 S5        30.25R

$$

AMZ130-135-150-152-154-156-158-170-250-252-270-ANZ085-086-088-633-658-670-260200-
MARINE OBSERVATIONS

STATION/POSITION TIME  TEMP    WIND        PRES    WAVE   SWELL
                       AIR SEA DIR/SP/G            HT/PER HT/PER
                 (UTC) (F)     (DEG/KT/KT) (MB)    (FT/S) (FT/S)
CHESAPEAKE LIGHT NOT AVBL
64 E VA BEACH    0050   55 49  210/ 12/ 14 1024.5    2/ 8   2/ 8
DUCK             0036   63 48  190/  9/ 12 1023.7
2 E DUCK         0030      50                N/A     1/11
OREGON INLET     0030   59 58  200/ 12/ 13 1025.0
13E OREGON INLT  0048      50                N/A     2/ 7   2/ 7
HATTERAS CG      0036   63 58  210/  6/  8 1024.9
DIAMOND BUOY     0050   70 76  190/ 17/ 21 1025.2    4/ 5   2/ 9
CAPE LOOKOUT     0000   66     230/  3/  4 1025.0
BEAUFORT LAB     0036   60 54  180/  3/  3 1024.3
30 SE NEW RVR IN 0008   67     230/  6/  8 1025.1
30 SE NEW RVR IN 0043      67                N/A     3/ 7
27 SE WRIGHTSVLE 0008   64 64  260/  2/  4 1024.6
5 SE WRIGHTSVLE  0008   62 59  180/  6/  8 1024.6
225 S CAPE HAT   0050   67 73   80/ 10/ 12 1026.4    5/ 8   5/ 8
41 SE CHARLESTON 0050   71 71  120/ 14/ 17 1023.1    4/ 7   3/ 7

$$



USA.gov is the U.S. government's official web portal to all federal, state and local government web resources and services.